TITAN 3C TRANSTAGE DEB, 40551

Orbit data source: Space-Track

TITAN 3C TRANSTAGE DEB, 40551 is space debris in HEO originally from a launch on Tue, 21 Dec 1965 UTC launched from the Air Force Eastern Test Range (AFETR). Debris objects in space refer to the collection of defunct objects orbiting the Earth. Examples of debris include non-operational satellites, rocket bodies, and fragments generated from explosions, collisions, or faulty payload assembly.

Loading next visibility...
TITAN 3C TRANSTAGE DEB details
Identifier
40551, 1965-108DR
Orbit
HEO
Last TLE update7 months ago
Origin
Flag of USUSAF SSD (US)
ManufacturerUnknown
MissionSpacecraft
Bus & MotorUnknown
MassUnknown
Launch date (UTC)
1965-12-21 (59 years ago)
Launch vehicleUnknown
Launch site
Air Force Eastern Test Range (AFETR)
Object type
Payload
Rocket body
Debris
Shape & HBRUnknown
Radar Cross SectionSmall (<0.1 m²)

Expand to show TLE details & history

TLE from 7 months ago
0 TITAN 3C TRANSTAGE DEB
1 40551U 65108DR  24125.38889154  .00000281  00000-0  61454-2 0  9998
2 40551  27.1385  16.2064 6861619 232.1376  43.7211  2.60582403146888
Epoch: 2024-05-04T09:20Z
Definitive object data (Epoch: 2024-05-04T09:20:00.229Z)
Latitude0.00014°
Longitude13.45753°
Altitude14,035.727 km
Speed4.602 km/s
True Right ascension01h 04m 51s
True Declination0° 00' 01"
Sunlit
Object was in daylight at TLE epoch
Visualization TLE readout
Latitude-9.13796°
Longitude127.79472°
Altitude30,395.443 km
Speed1.95 km/s
Apparent Right ascension09h 07m 36s
Apparent Declination-16° 34' 24"
Sunlit
Object is in daylight
Visualization observer readout
Local Sidereal Time05:27:19
Azimuth126° SE
Elevation13.761°
Doppler factor1
Orbital elements
Apogee altitude31,240.814 km
Perigee altitude623.717 km
Semi-major axis22,310.403 km
Eccentricity0.6861619
Inclination27.1385°
RAAN16.2064°
Arg. of periapsis232.1376°
True anomaly127.78494°
Mean anomaly43.7211°
Eccentric anomaly82.7182°
Mean motion0.6513 °/min
BSTAR0.0061454
Orbital period552.74 mins
Loading maneuver chart data...

TITAN 3C TRANSTAGE DEB Visibility forecast

Observer location: undefined°, undefined

Span
Click to sort rows by Start time (UTC) header in descending order
Start Az.
Max El. time (UTC)
Max El. Az.
Max El.
End time (UTC)
End Az.
76 mins2024-12-02 07:41:13.144Z126.014° SE2024-12-02 07:41:13.144Z126.014° SE13.372°2024-12-02 08:57:13.144Z134.38° SE
88 mins2024-12-03 06:13:13.144Z262.053° W2024-12-03 06:42:13.144Z192.166° SSW40.819°2024-12-03 07:41:13.144Z161.908° S
|